weather.gov     
National Weather Service

Regional Weather Roundup
NWS Homepage
This page is being discontinued on March 12, 2014.
The same data is available at this site. Please update your bookmarks.
Thank you, and we apologize for the inconvenience.
Please send an email to SR-SRH.Webmaster@noaa.gov with any concerns.


Current Version
Previous Version:    01  02  03  04  05  06  07  08  09  10  11  12  13  14  15  16  17  18  19  20  21  22  23  24  25  26  27  28  29  30  
   31  32  33  34  35  36  37  38  39  40  41  42  43  44  45  46  47  48  49  50  51  52  53  54  55  56  57  58  59  60  
[Printable]
054
ASUS45 KPSR 181310
RWRAZ

ARIZONA REGIONAL HOURLY WEATHER ROUNDUP
NATIONAL WEATHER SERVICE PHOENIX AZ
600 AM MST THU SEP 18 2014

NOTE: FAIR INDICATES FEW OR NO CLOUDS BELOW 12,000 FEET WITH NO
SIGNIFICANT WEATHER AND/OR OBSTRUCTIONS TO VISIBILITY.

AZZ001>003-036-181400-
NORTHWEST ARIZONA

CITY           SKY/WX    TMP DP  RH WIND       PRES   REMARKS
BULLHEAD CITY  MOCLDY    82  68  61 SE5       29.74R
KINGMAN        CLEAR     65  60  84 SE6       29.91S
$$

AZZ004>008-015-016-018-181400-
NORTH CENTRAL ARIZONA

CITY           SKY/WX    TMP DP  RH WIND       PRES   REMARKS
GRAND CANYON   CLEAR     44  41  89 CALM      30.12S
PRESCOTT       CLEAR     57  52  83 S7        30.02S
FLAGSTAFF      CLEAR     47  44  90 CALM      30.14R
PAYSON         CLEAR     59  54  82 CALM      30.04R
PAGE           CLEAR     67  52  58 S3        29.98R
$$

AZZ009>014-017-181400-
NORTHEAST ARIZONA

CITY           SKY/WX    TMP DP  RH WIND       PRES   REMARKS
WINSLOW        CLEAR     54  53  97 SW5       30.03R
SAINT JOHNS    CLEAR     56  53  90 CALM      30.05R
WINDOW ROCK    CLEAR     46  39  76 CALM      30.15
SHOW LOW       CLOUDY    52  50  93 W3        30.11R
$$

AZZ023-181400-
GREATER PHOENIX AREA

CITY           SKY/WX    TMP DP  RH WIND       PRES   REMARKS
PHOENIX        PTCLDY    77  66  68 CALM      29.75R
BUCKEYE          N/A     73  73 100 CALM      29.76R
GLENDALE       PTCLDY    75  70  83 CALM      29.77
LUKE AFB       CLEAR     75  70  85 N5        29.76R
DEER VALLEY    CLEAR     76  63  64 NE6       29.78R
SCOTTSDALE     CLEAR     76  65  68 CALM      29.79R
MESA-FALCON    MOCLDY    75  64  69 N9        29.77
MESA-GATEWAY   MOCLDY    77  64  65 SE6       29.79R
CHANDLER       MOCLDY    75  68  78 CALM      29.77
$$

AZZ027-028-181400-
SOUTHWEST MARICOPA COUNTY AND PINAL COUNTY

CITY           SKY/WX    TMP DP  RH WIND       PRES   REMARKS
CASA GRANDE    CLOUDY    75  63  64 NE6       29.78R
$$

AZZ503-504-507>509-181400-
SOUTHEAST ARIZONA

CITY           SKY/WX    TMP DP  RH WIND       PRES   REMARKS
TUCSON         CLOUDY    71  68  90 SW3       29.86R
DAVIS-MONTHAN  MOCLDY    69  69  97 S1        29.84R
RYAN FIELD       N/A     72  72 100 SE7       29.85
NOGALES        CLOUDY    66  65  96 CALM      29.91R FOG
SIERRA VISTA   DRIZZLE   64  64 100 N9        29.94R
DOUGLAS        RAIN      65  64  97 S10       29.91S FOG
SAFFORD        CLOUDY    66  64  93 SE7       29.90R
$$

AZZ020-021-025-026-031-181400-
SOUTHWEST ARIZONA

CITY           SKY/WX    TMP DP  RH WIND       PRES   REMARKS
YUMA           PTCLDY    84  73  69 SE8       29.69S
$$

CAZ031-033-041-043-047-048-061-181400-
SOUTHERN CALIFORNIA

CITY           SKY/WX    TMP DP  RH WIND       PRES   REMARKS
DOWNTOWN L.A.  CLEAR     69  60  73 CALM      29.81R
L.A. AIRPORT   CLEAR     67  60  78 CALM      29.82R
SAN DIEGO      CLOUDY    74  68  81 NW3       29.84R
BURBANK        CLEAR     69  56  62 CALM      29.82R
ONTARIO        PTCLDY    68  61  78 W10       29.83R
RIVERSIDE      CLEAR     68  60  75 W5        29.84R
PALM SPRINGS   CLEAR     85  60  42 CALM      29.72R
EL CENTRO NAS  PTCLDY    84  58  40 SW8       29.67R
IMPERIAL       CLEAR     83  60  45 W8        29.66R
BLYTHE         CLEAR     81  69  67 CALM      29.70S
$$

NVZ020-UTZ003-181400-
SOUTHERN NEVADA-UTAH

CITY           SKY/WX    TMP DP  RH WIND       PRES   REMARKS
LAS VEGAS      PTCLDY    81  60  48 S7        29.75R
SALT LAKE CITY PTCLDY    69  46  43 SE13      29.91R
$$

NMZ009-TXZ055-181400-
NEW MEXICO-WEST TEXAS

CITY           SKY/WX    TMP DP  RH WIND       PRES   REMARKS
ALBUQUERQUE    PTCLDY    59  50  72 N9        30.08S
EL PASO        LGT RAIN  66  63  90 N12       29.97S
$$


........................KEY........................
SKY/WX - SKY CONDITION/WEATHER
TMP    - TEMPERATURE IN FAHRENHEIT
DP     - DEW POINT IN FAHRENHEIT
RH     - RELATIVE HUMIDITY IN PERCENT
WIND   - DIRECTION AND SPEED IN MILES PER HOUR (MPH)
VRB    - VARIABLE WIND DIRECTION
PRES   - MEAN SEA LEVEL PRESSURE IN INCHES OF MERCURY
         F - FALLING PRESSURE   R - RISING PRESSURE
         S - STEADY PRESSURE
VSB    - VISIBILITY IN MILES
HX     - HEAT INDEX IN FAHRENHEIT
WCI    - WIND CHILL INDEX IN FAHRENHEIT
TC     - TEMPERATURE IN CELSIUS WHICH IS ALSO KNOWN AS
         TEMPERATURE IN CENTIGRADE
AFB    - AIR FORCE BASE
         LUKE AFB IS LUKE AIR FORCE BASE
         DAVIS-MONTHAN IS DAVIS-MONTHAN AIR FORCE BASE
NAS    - NAVAL AIR STATION
         EL CENTRO NAS IS EL CENTRO NAVAL AIR STATION
N/A    - NOT AVAILABLE




U.S. Dept. of Commerce
NOAA National Weather Service
1325 East West Highway
Silver Spring, MD 20910
E-mail: w-nws.webmaster@noaa.gov
Page last modified: May 16, 2007
NATIONAL WEATHER SERVICE: for Safety, for Work, for Fun - FOR LIFE